Flag for Canada Weather past 2 weeks in Fort Simpson, Northwest Territories, Canada

Now
54 °F

Passing clouds.


Feels Like: 53 °F
Forecast: 46 / 71 °F
Wind: 5 mph from Southeast

Location: Fort Simpson

Current Time: Aug 22, 2014 at 10:17:37 AM

Latest Report: Aug 22, 2014 at 10:00 AM


Visibility: 2 mi

Pressure: 30.29 "Hg

Humidity: 58%

Dew point: 39 °F

Location of Fort SimpsonLocation

Historic Weather in Fort Simpson — Graph

°F

Fort Simpson temperature yesterday

Maximum temperature yesterday: 68 °F (at 7:00 PM)
Minimum temperature yesterday: 32 °F (at 7:00 AM)
Average temperature yesterday: 51 °F

Past Weeks' High & Low Weather Summary

 TemperatureHumidityPressure
High102 °F (Aug 12, 8:00 PM)100% (Aug 8, 6:00 AM)30.30 "Hg (Aug 8, 6:00 AM)
Low32 °F (Aug 21, 7:00 AM)11% (Aug 12, 8:00 PM)29.56 "Hg (Aug 18, 8:00 AM)
Average63 °F64%29.87 "Hg
* Reported Aug 7 9:00 AM — Aug 22 9:00 AM, Fort Simpson, Weather by CustomWeather, © 2014

Note: Actual official high and low records may vary slightly from our data, if they occured in-between our weather recording intervals... More about our weather records

Advertising

Fort Simpson weather history for previous 24 hours

 ConditionsComfort  
Time TempWeatherWind HumidityBarometerVisibility
9:00 AM
Aug 22
50 °FPassing clouds.7 mph62%30.29 "Hg2 mi
8:00 AM46 °FPassing clouds.6 mph66%30.30 "Hg2 mi
7:00 AM46 °FPassing clouds.7 mph66%30.30 "Hg2 mi
6:00 AM46 °FPassing clouds.6 mph66%30.30 "Hg3 mi
5:00 AM46 °FClear.5 mph66%30.30 "Hg3 mi
4:00 AM48 °FClear.3 mph62%30.30 "Hg15 mi
3:00 AM52 °FPassing clouds.6 mph54%30.29 "Hg15 mi
2:00 AM52 °FPassing clouds.5 mph58%30.29 "Hg15 mi
1:00 AM54 °FPassing clouds.5 mph54%30.28 "Hg15 mi
12:00 AM46 °FPassing clouds.2 mph76%30.28 "Hg15 mi
11:00 PM
Aug 21
50 °FPassing clouds.No wind71%30.27 "Hg15 mi
10:00 PM52 °FPassing clouds.No wind72%30.27 "Hg15 mi
9:00 PM61 °FPassing clouds.No wind48%30.26 "Hg15 mi
8:00 PM66 °FPassing clouds.2 mph32%30.25 "Hg15 mi
7:00 PM68 °FPassing clouds.5 mph26%30.25 "Hg15 mi
6:00 PM66 °FPassing clouds.7 mph32%30.25 "Hg15 mi
5:00 PM66 °FScattered clouds.No wind32%30.26 "Hg15 mi
4:00 PM64 °FPassing clouds.3 mph34%30.26 "Hg15 mi
3:00 PM64 °FScattered clouds.6 mph32%30.26 "Hg15 mi
2:00 PM64 °FPassing clouds.3 mph34%30.27 "Hg15 mi
1:00 PM63 °FPassing clouds.3 mph37%30.27 "Hg15 mi
12:00 PM61 °FPartly sunny.6 mph52%30.27 "Hg15 mi
11:00 AM57 °FPartly sunny.No wind51%30.27 "Hg15 mi
10:00 AM48 °FPartly sunny.No wind82%30.27 "Hg15 mi
Weather by CustomWeather, © 2014

See weather overviewHow to use our weather pages